DW3403 Milford MA US current weather conditions

sailwx.info

Wind from 303 at 5 knots gusting 15

Air temperature 6.1° C
Dewpoint -1.8° C

Last reported at 2019-Dec-15 20:03 UTC.
Time now 2019-Dec-15 20:53 UTC

Location: N 42°10' W 071°32'.
View on Google Maps.

See reports from other nearby stations

  
Tides and Currents Weather Stations Pressure Air Temp Water Temp Dewpoint Dewpoint Depression Visibility Wind Speed Wind Dir Waves Ship Positions
date/time (UTC)wind fromknots sea level pressurealtimeterstation pressurevisibilityair tempwater tempwave heightnotes
2019-Dec-15 20:03 303 5 gusting 15 6.1
2019-Dec-15 19:53 319 5 gusting 19 6.1
2019-Dec-15 19:48 291 7 gusting 19 6.1
2019-Dec-15 19:43 302 6 gusting 13 6.1
2019-Dec-15 19:38 268 7 gusting 16 6.1
2019-Dec-15 19:33 326 7 gusting 19 6.1
2019-Dec-15 19:28 263 11 gusting 18 6.1
2019-Dec-15 19:23 238 5 gusting 14 6.1
2019-Dec-15 19:18 280 7 gusting 17 6.1
2019-Dec-15 19:13 281 6 gusting 17 6.7
2019-Dec-15 19:08 330 3 gusting 16 6.7
2019-Dec-15 19:03 263 4 gusting 20 6.7
2019-Dec-15 18:58 297 10 gusting 20 6.7
2019-Dec-15 18:53 265 9 gusting 18 7.2
2019-Dec-15 18:48 323 11 gusting 18 7.2
2019-Dec-15 18:43 283 6 gusting 16 7.2
2019-Dec-15 18:38 351 4 gusting 16 7.2
2019-Dec-15 18:33 302 8 gusting 13 7.8
2019-Dec-15 18:28 323 6 gusting 13 7.2
2019-Dec-15 18:23 303 6 gusting 26 7.2
2019-Dec-15 18:18 279 7 gusting 26 6.7
2019-Dec-15 18:13 276 6 gusting 17 6.7
2019-Dec-15 18:08 236 7 gusting 17 6.7
2019-Dec-15 18:03 288 6 gusting 15 6.7
2019-Dec-15 17:58 300 9 gusting 16 6.7
2019-Dec-15 17:53 223 6 gusting 19 6.7
2019-Dec-15 17:48 341 9 gusting 23 7.2
2019-Dec-15 17:43 272 6 gusting 20 7.2
2019-Dec-15 17:38 292 7 gusting 21 7.2
2019-Dec-15 17:33 281 6 gusting 15 6.7
2019-Dec-15 17:28 253 8 gusting 15 6.7
2019-Dec-15 17:23 273 5 gusting 16 6.7
2019-Dec-15 17:18 255 8 gusting 25 6.7
2019-Dec-15 17:13 304 10 gusting 25 7.2
2019-Dec-15 17:08 304 8 gusting 19 7.2
2019-Dec-15 17:03 274 7 gusting 19 7.2
2019-Dec-15 16:58 309 10 gusting 19 7.2
2019-Dec-15 16:53 331 12 gusting 19 7.8
2019-Dec-15 16:48 011 12 gusting 18 7.8
2019-Dec-15 16:43 271 6 gusting 18 7.8
2019-Dec-15 16:38 312 10 gusting 18 8.3
2019-Dec-15 16:33 313 7 gusting 22 7.8
2019-Dec-15 16:28 319 5 gusting 19 7.8
2019-Dec-15 16:23 299 8 gusting 19 7.8
2019-Dec-15 16:18 355 8 gusting 23 7.8
2019-Dec-15 16:13 319 8 gusting 20 7.8
2019-Dec-15 16:08 267 6 gusting 12 7.8
2019-Dec-15 16:03 257 6 gusting 21 7.8
2019-Dec-15 15:58 286 10 gusting 24 7.8
2019-Dec-15 15:53 317 9 gusting 24 7.8
2019-Dec-15 15:48 293 6 gusting 19 7.8
2019-Dec-15 15:43 311 7 gusting 19 7.8
2019-Dec-15 15:38 343 6 gusting 24 7.2
2019-Dec-15 15:33 288 12 gusting 24 7.2
2019-Dec-15 15:28 012 9 gusting 21 7.2
2019-Dec-15 15:23 296 6 gusting 21 7.2
2019-Dec-15 15:18 292 7 gusting 19 7.2
2019-Dec-15 15:13 327 8 gusting 20 7.2
2019-Dec-15 15:08 310 10 gusting 19 7.2
2019-Dec-15 15:03 287 11 gusting 17 6.7
2019-Dec-15 14:58 295 9 gusting 16 6.7
2019-Dec-15 14:53 288 7 gusting 15 6.7
2019-Dec-15 14:48 240 8 gusting 15 6.7
2019-Dec-15 14:43 262 8 gusting 19 6.1
2019-Dec-15 14:38 261 12 gusting 19 6.1
2019-Dec-15 14:33 306 7 gusting 13 6.1
2019-Dec-15 14:28 311 6 gusting 19 6.1
2019-Dec-15 14:23 243 11 gusting 19 6.1
2019-Dec-15 14:18 340 6 gusting 17 6.1
2019-Dec-15 14:13 283 6 gusting 17 6.1
2019-Dec-15 14:08 237 8 gusting 16 6.1
2019-Dec-15 14:03 317 5 gusting 17 6.1
2019-Dec-15 13:58 292 10 gusting 17 6.1
2019-Dec-15 13:53 306 8 gusting 24 6.1
2019-Dec-15 13:48 255 7 gusting 25 5.6
2019-Dec-15 13:43 294 7 gusting 27 5.6
2019-Dec-15 13:38 251 6 gusting 27 5.6
2019-Dec-15 13:33 062 7 gusting 21 5.6
2019-Dec-15 13:28 299 11 gusting 21 5.6
2019-Dec-15 13:23 304 4 gusting 19 5.6
2019-Dec-15 13:18 317 8 gusting 19 5.6
2019-Dec-15 13:13 288 9 gusting 19 5.6
2019-Dec-15 13:08 281 8 gusting 19 5.6
2019-Dec-15 13:03 041 8 gusting 19 5.6
2019-Dec-15 12:58 322 9 gusting 26 5.6
2019-Dec-15 12:53 284 8 gusting 26 5.6
2019-Dec-15 12:48 351 10 gusting 19 5.6
2019-Dec-15 12:43 301 6 gusting 19 5.6
2019-Dec-15 12:38 242 6 gusting 19 5.6
2019-Dec-15 12:33 305 6 gusting 18 5.6
2019-Dec-15 12:28 271 10 gusting 17 5.6
2019-Dec-15 12:23 275 8 gusting 21 5.6
2019-Dec-15 12:18 242 6 gusting 21 5.6
2019-Dec-15 12:13 271 6 gusting 17 5.6
2019-Dec-15 12:08 271 7 gusting 17 5.6
2019-Dec-15 12:03 263 5 gusting 18 5.6
2019-Dec-15 11:58 279 6 gusting 18 5.6
2019-Dec-15 11:53 283 10 gusting 17 5.6
2019-Dec-15 11:48 287 3 gusting 19 5.6
2019-Dec-15 11:43 340 4 gusting 19 5.6
2019-Dec-15 11:38 294 8 gusting 17 5.6
2019-Dec-15 11:33 274 5 gusting 13 5.6
2019-Dec-15 11:28 265 7 gusting 13 5.6
2019-Dec-15 11:23 252 6 gusting 18 5.6
2019-Dec-15 11:18 258 8 gusting 18 5.6
2019-Dec-15 11:13 299 6 gusting 16 5.6
2019-Dec-15 11:08 244 6 gusting 19 5.6
2019-Dec-15 11:03 302 9 gusting 19 5.6
2019-Dec-15 10:58 285 7 gusting 19 5.6
2019-Dec-15 10:53 346 9 gusting 27 5.6
2019-Dec-15 10:48 273 14 gusting 27 5.6
2019-Dec-15 10:43 244 7 gusting 18 5.6
2019-Dec-15 10:38 332 5 gusting 13 5.6
2019-Dec-15 10:33 271 7 gusting 13 5.6
2019-Dec-15 10:28 273 5 gusting 15 5.6
2019-Dec-15 10:23 324 6 gusting 19 5.6
2019-Dec-15 10:18 271 5 gusting 17 5.6
2019-Dec-15 10:13 263 5 gusting 19 5.6
2019-Dec-15 10:08 333 11 gusting 20 5.6
2019-Dec-15 10:03 265 6 gusting 18 5.0
2019-Dec-15 09:58 296 6 gusting 22 5.0
2019-Dec-15 09:53 296 6 gusting 13 5.0
2019-Dec-15 09:48 242 8 gusting 13 5.6
2019-Dec-15 09:43 026 6 gusting 12 5.6
2019-Dec-15 09:38 259 5 gusting 19 5.6
2019-Dec-15 09:33 257 9 gusting 19 5.6
2019-Dec-15 09:28 217 6 gusting 12 5.6
2019-Dec-15 09:23 267 5 gusting 12 5.6
2019-Dec-15 09:18 301 6 gusting 16 5.6
2019-Dec-15 09:13 336 6 gusting 16 5.6
2019-Dec-15 09:08 332 6 gusting 13 5.6
2019-Dec-15 09:03 232 6 gusting 19 5.6
2019-Dec-15 08:58 275 6 gusting 17 5.6
2019-Dec-15 08:53 275 4 gusting 13 5.6
2019-Dec-15 08:48 232 7 gusting 12 5.6
2019-Dec-15 08:43 258 3 gusting 13 5.6
2019-Dec-15 08:38 305 6 gusting 20 5.6
2019-Dec-15 08:33 266 4 gusting 18 5.6
2019-Dec-15 08:28 288 6 gusting 18 5.6
2019-Dec-15 08:23 340 6 gusting 16 5.0
2019-Dec-15 08:18 308 6 gusting 19 5.0
2019-Dec-15 08:13 298 9 gusting 19 5.0
2019-Dec-15 08:08 300 9 gusting 19 5.0
2019-Dec-15 08:03 303 8 gusting 13 5.0
2019-Dec-15 07:58 303 4 gusting 19 5.6
2019-Dec-15 07:53 304 8 gusting 19 5.6
2019-Dec-15 07:48 259 9 gusting 14 5.6
2019-Dec-15 07:43 207 7 gusting 22 5.6
2019-Dec-15 07:38 277 9 gusting 23 5.6
2019-Dec-15 07:33 279 5 gusting 19 5.6
2019-Dec-15 07:28 273 6 gusting 15 5.6
2019-Dec-15 07:23 360 4 gusting 13 5.6
2019-Dec-15 07:18 274 6 gusting 13 6.1
2019-Dec-15 07:13 225 4 gusting 13 6.1
2019-Dec-15 07:08 284 5 gusting 11 6.1
2019-Dec-15 07:03 278 5 gusting 12 6.1
2019-Dec-15 06:58 313 6 gusting 14 6.7
2019-Dec-15 06:53 254 6 gusting 13 6.7
2019-Dec-15 06:48 355 6 gusting 13 6.7
2019-Dec-15 06:43 298 6 gusting 12 6.7
2019-Dec-15 06:38 302 3 gusting 10 6.7
2019-Dec-15 06:33 277 3 gusting 13 7.2
2019-Dec-15 06:28 280 5 gusting 14 7.2
2019-Dec-15 06:23 277 6 gusting 16 7.8
2019-Dec-15 06:18 232 6 gusting 16 7.8
2019-Dec-15 06:13 284 3 gusting 19 8.3
2019-Dec-15 06:08 304 10 gusting 19 8.9
2019-Dec-15 06:03 190 6 gusting 16 9.4
2019-Dec-15 05:58 281 4 gusting 19 9.4
2019-Dec-15 05:53 248 8 gusting 19 9.4
2019-Dec-15 05:48 307 7 gusting 18 9.4
2019-Dec-15 05:43 315 7 gusting 16 9.4
2019-Dec-15 05:38 299 7 gusting 16 9.4
2019-Dec-15 05:33 293 4 gusting 13 9.4
2019-Dec-15 05:28 273 6 gusting 13 9.4
2019-Dec-15 05:23 286 6 gusting 19 10.0
2019-Dec-15 05:18 293 7 gusting 19 10.0
2019-Dec-15 05:13 321 6 gusting 12 10.0
2019-Dec-15 05:08 231 6 gusting 16 10.0
2019-Dec-15 05:03 231 8 gusting 16 10.0
2019-Dec-15 04:58 251 6 gusting 13 10.0
2019-Dec-15 04:53 261 5 gusting 26 10.0
2019-Dec-15 04:48 308 5 gusting 26 10.0
2019-Dec-15 04:43 246 4 gusting 14 10.0
2019-Dec-15 04:38 229 4 gusting 13 10.0
2019-Dec-15 04:33 294 4 gusting 11 10.6
2019-Dec-15 04:28 250 4 gusting 13 10.6
2019-Dec-15 04:23 232 3 gusting 14 10.6
2019-Dec-15 04:18 281 8 gusting 15 10.6
2019-Dec-15 04:13 209 5 gusting 15 10.6
2019-Dec-15 04:03 342 7 gusting 15 11.1
2019-Dec-15 03:58 276 7 gusting 17 11.1
2019-Dec-15 03:53 239 7 gusting 17 11.1
2019-Dec-15 03:48 253 6 gusting 13 11.1
2019-Dec-15 03:43 226 5 gusting 14 11.1
2019-Dec-15 03:38 226 3 gusting 11 11.1
2019-Dec-15 03:33 240 5 gusting 12 11.7
2019-Dec-15 03:28 317 4 gusting 12 11.7
2019-Dec-15 03:23 202 4 gusting 11 11.7
2019-Dec-15 03:18 222 2 gusting 10 11.7
2019-Dec-15 03:13 217 5 gusting 12 11.7
2019-Dec-15 03:08 259 6 gusting 12 11.7
2019-Dec-15 03:03 277 5 gusting 10 11.7
2019-Dec-15 02:58 155 2 gusting 11 11.7
2019-Dec-15 02:53 215 6 gusting 11 11.7
2019-Dec-15 02:48 110 4 gusting 10 12.2
2019-Dec-15 02:43 244 3 gusting 9 12.2
2019-Dec-15 02:38 260 5 gusting 10 12.2
2019-Dec-15 02:33 209 5 gusting 10 12.2
2019-Dec-15 02:28 207 4 gusting 13 12.2
2019-Dec-15 02:23 201 4 gusting 13 12.2
2019-Dec-15 02:18 219 3 gusting 11 12.2
2019-Dec-15 02:13 207 7 gusting 13 12.2
2019-Dec-15 02:08 238 3 gusting 14 12.2
2019-Dec-15 02:03 200 3 gusting 14 12.2
2019-Dec-15 01:58 178 3 gusting 8 12.8
2019-Dec-15 01:53 198 4 gusting 13 12.8
2019-Dec-15 01:48 254 6 gusting 15 12.8
2019-Dec-15 01:43 136 3 gusting 14 12.8
2019-Dec-15 01:38 168 4 gusting 11 12.8
2019-Dec-15 01:33 209 4 gusting 16 13.3
2019-Dec-15 01:28 232 6 gusting 16 13.3
2019-Dec-15 01:23 247 4 gusting 17 13.3
2019-Dec-15 01:18 196 4 gusting 15 13.3
2019-Dec-15 01:13 213 4 gusting 15 13.3
2019-Dec-15 01:08 202 6 gusting 15 13.9
2019-Dec-15 01:03 223 5 gusting 14 13.9
2019-Dec-15 00:58 212 3 gusting 14 13.9
2019-Dec-15 00:53 268 5 gusting 16 13.9
2019-Dec-15 00:48 209 6 gusting 16 13.9
2019-Dec-15 00:43 234 5 gusting 13 13.9
2019-Dec-15 00:38 202 4 gusting 13 13.9
2019-Dec-15 00:33 208 8 gusting 14 13.9
2019-Dec-15 00:28 208 4 gusting 16 13.9
2019-Dec-15 00:23 216 5 gusting 16 14.4
2019-Dec-15 00:18 196 6 gusting 14 14.4
2019-Dec-15 00:13 215 7 gusting 17 14.4
2019-Dec-15 00:08 193 4 gusting 14 14.4
2019-Dec-15 00:03 218 6 gusting 13 14.4
2019-Dec-14 23:58 207 6 gusting 15 14.4
2019-Dec-14 23:53 243 5 gusting 19 14.4
2019-Dec-14 23:48 198 3 gusting 19 14.4
2019-Dec-14 23:43 159 4 gusting 10 14.4
2019-Dec-14 23:38 130 4 gusting 11 14.4
2019-Dec-14 23:33 213 3 gusting 9 14.4
2019-Dec-14 23:28 229 5 gusting 9 14.4
2019-Dec-14 23:23 242 3 gusting 12 14.4
2019-Dec-14 23:18 208 6 gusting 12 14.4
2019-Dec-14 23:13 221 6 gusting 11 14.4
2019-Dec-14 23:08 176 6 gusting 11 13.9
2019-Dec-14 23:03 207 1 gusting 8 13.9
2019-Dec-14 22:58 176 4 gusting 9 13.3
2019-Dec-14 22:53 209 1 gusting 8 13.3
2019-Dec-14 22:48 134 3 gusting 9 12.8
2019-Dec-14 22:43 211 2 gusting 6 12.2
2019-Dec-14 22:38 227 1 gusting 3 11.7
2019-Dec-14 22:33 128 0 gusting 4 11.1
2019-Dec-14 22:28 182 0 gusting 2 10.6
2019-Dec-14 22:23 109 0 gusting 2 10.6
2019-Dec-14 22:18 151 10.0
2019-Dec-14 22:13 131 10.0
2019-Dec-14 22:08 131 10.0
2019-Dec-14 22:03 295 10.0
2019-Dec-14 21:58 295 10.0
2019-Dec-14 21:53 295 9.4
2019-Dec-14 21:48 294 9.4
2019-Dec-14 21:43 294 9.4
2019-Dec-14 21:38 294 9.4
2019-Dec-14 21:33 294 9.4
2019-Dec-14 21:28 294 9.4
2019-Dec-14 21:23 294 9.4
2019-Dec-14 21:18 294 9.4
2019-Dec-14 21:08 294 9.4
2019-Dec-14 21:03 294 9.4
2019-Dec-14 20:58 294 9.4
2019-Dec-14 20:53 294 9.4
2019-Dec-14 20:48 294 10.0
2019-Dec-14 20:43 294 10.0
2019-Dec-14 20:38 294 10.0
2019-Dec-14 20:33 294 10.0
2019-Dec-14 20:28 294 10.0
2019-Dec-14 20:23 294 10.0
2019-Dec-14 20:18 294 10.0
2019-Dec-14 20:13 294 10.0
2019-Dec-14 20:08 294 10.0
2019-Dec-14 20:03 294 10.0
2019-Dec-14 19:58 294 10.0
2019-Dec-14 19:53 294 10.0
2019-Dec-14 19:48 294 10.0
2019-Dec-14 19:43 294 10.0
2019-Dec-14 19:38 294 10.0
2019-Dec-14 19:33 294 10.0
2019-Dec-14 19:28 294 10.0
2019-Dec-14 19:23 294 10.0
2019-Dec-14 19:18 294 10.0
2019-Dec-14 19:13 294 10.0
2019-Dec-14 19:08 294 10.0
2019-Dec-14 19:03 294 10.0
2019-Dec-14 18:58 294 10.0
2019-Dec-14 18:53 294 10.0
2019-Dec-14 18:48 294 10.0
2019-Dec-14 18:43 294 10.0
2019-Dec-14 18:38 294 10.0
2019-Dec-14 18:33 294 10.0
2019-Dec-14 18:28 294 10.0
2019-Dec-14 18:23 294 10.0
2019-Dec-14 18:18 294 10.0
2019-Dec-14 18:13 294 10.0
2019-Dec-14 18:08 294 10.0
2019-Dec-14 18:03 294 10.0
2019-Dec-14 17:58 294 10.0
2019-Dec-14 17:53 294 10.0
2019-Dec-14 17:48 294 10.0
2019-Dec-14 17:43 294 9.4
2019-Dec-14 17:38 294 9.4
2019-Dec-14 17:33 294 9.4
2019-Dec-14 17:28 294 9.4
2019-Dec-14 17:23 294 9.4
2019-Dec-14 17:18 294 9.4
2019-Dec-14 17:13 294 9.4
2019-Dec-14 17:08 294 8.9
2019-Dec-14 17:03 294 8.9
2019-Dec-14 16:58 294 0 gusting 3 8.9
2019-Dec-14 16:53 293 0 gusting 3 8.9
2019-Dec-14 16:48 309 1 gusting 3 8.3
2019-Dec-14 16:43 300 1 gusting 3 8.3
2019-Dec-14 16:38 306 1 gusting 3 8.3
2019-Dec-14 16:33 338 1 gusting 3 8.3
2019-Dec-14 16:28 321 2 gusting 6 8.3
2019-Dec-14 16:23 288 2 gusting 6 8.3
2019-Dec-14 16:18 294 2 gusting 4 7.8
2019-Dec-14 16:13 292 1 gusting 4 7.8
2019-Dec-14 16:08 305 2 gusting 5 7.8
2019-Dec-14 16:03 309 2 gusting 7 7.2
2019-Dec-14 15:58 294 3 gusting 7 7.8
2019-Dec-14 15:53 302 3 gusting 6 7.2
2019-Dec-14 15:48 281 2 gusting 6 7.2
2019-Dec-14 15:43 289 2 gusting 6 7.2
2019-Dec-14 15:38 302 3 gusting 6 7.2
2019-Dec-14 15:33 293 2 gusting 6 7.2
2019-Dec-14 15:28 310 2 gusting 4 7.2
2019-Dec-14 15:23 304 2 gusting 4 6.7
2019-Dec-14 15:18 323 1 gusting 3 6.7
2019-Dec-14 15:13 005 2 gusting 3 6.7
2019-Dec-14 15:08 300 1 gusting 5 6.7
2019-Dec-14 15:03 300 1 gusting 5 6.7
2019-Dec-14 14:58 298 1 gusting 3 6.7
2019-Dec-14 14:53 305 1 gusting 2 6.7
2019-Dec-14 14:48 321 1 gusting 2 6.1
2019-Dec-14 14:43 304 1 gusting 3 6.1
2019-Dec-14 14:38 296 1 gusting 3 6.1
2019-Dec-14 14:33 303 1 gusting 3 6.1
2019-Dec-14 14:28 298 1 gusting 2 6.1
2019-Dec-14 14:23 295 0 gusting 2 6.1
2019-Dec-14 14:18 294 1 gusting 2 6.1
2019-Dec-14 14:13 310 5.6
2019-Dec-14 14:08 310 1 gusting 3 5.6
2019-Dec-14 14:03 310 1 gusting 3 5.6
2019-Dec-14 13:58 296 1 gusting 3 5.6
2019-Dec-14 13:53 320 0 gusting 2 5.6
2019-Dec-14 13:48 320 0 gusting 2 5.6
2019-Dec-14 13:43 320 0 gusting 2 5.6
2019-Dec-14 13:38 323 0 gusting 2 5.6
2019-Dec-14 13:33 298 0 gusting 2 5.6
2019-Dec-14 13:28 298 0 gusting 1 5.6
2019-Dec-14 13:23 298 0 gusting 1 5.6
2019-Dec-14 13:18 298 0 gusting 1 5.6
2019-Dec-14 13:13 298 0 gusting 2 5.6
2019-Dec-14 13:08 296 0 gusting 2 5.6
2019-Dec-14 13:03 306 1 gusting 2 5.6
2019-Dec-14 12:58 307 1 gusting 2 5.6
2019-Dec-14 12:53 306 0 gusting 2 5.0
2019-Dec-14 12:48 311 0 gusting 1 5.0
2019-Dec-14 12:43 311 0 gusting 2 5.0
2019-Dec-14 12:38 310 0 gusting 2 5.0
2019-Dec-14 12:33 310 1 gusting 6 5.0
2019-Dec-14 12:28 309 3 gusting 6 5.0
2019-Dec-14 12:23 291 1 gusting 3 5.0
2019-Dec-14 12:18 305 1 gusting 2 5.0
2019-Dec-14 12:13 305 0 gusting 1 5.0
2019-Dec-14 12:08 305 0 gusting 1 5.0
2019-Dec-14 12:03 305 0 gusting 1 5.0
2019-Dec-14 11:58 305 0 gusting 1 5.0
2019-Dec-14 11:53 305 0 gusting 1 5.0
2019-Dec-14 11:48 305 5.0
2019-Dec-14 11:43 305 0 gusting 2 5.0
2019-Dec-14 11:38 305 0 gusting 2 5.0
2019-Dec-14 11:33 305 1 gusting 2 5.0
2019-Dec-14 11:28 305 0 gusting 3 5.0
2019-Dec-14 11:23 305 1 gusting 3 5.0
2019-Dec-14 11:18 332 0 gusting 2 5.0
2019-Dec-14 10:58 098 0 gusting 1 5.6
2019-Dec-14 10:53 105 0 gusting 1 6.1
2019-Dec-14 10:48 105 0 gusting 1 6.1
2019-Dec-14 10:43 105 0 gusting 1 6.1
2019-Dec-14 10:38 104 0 gusting 1 6.7
2019-Dec-14 10:33 104 0 gusting 1 6.7
2019-Dec-14 10:28 104 6.7
2019-Dec-14 10:23 104 6.7
2019-Dec-14 10:18 104 6.7
2019-Dec-14 10:13 104 0 gusting 2 6.7
2019-Dec-14 10:08 126 6.7
2019-Dec-14 10:03 126 6.7
2019-Dec-14 09:58 344 0 gusting 2 6.7
2019-Dec-14 09:53 181 0 gusting 1 6.7
2019-Dec-14 09:48 181 0 gusting 2 6.7
2019-Dec-14 09:43 181 0 gusting 3 6.7
2019-Dec-14 09:38 035 6.7
2019-Dec-14 09:33 079 1 gusting 2 6.7
2019-Dec-14 09:28 047 0 gusting 2 6.7
2019-Dec-14 09:23 080 0 gusting 4 6.7
2019-Dec-14 09:18 323 2 gusting 4 6.7
2019-Dec-14 09:00 029 0 gusting 2 6.7
2019-Dec-14 08:53 088 0 gusting 2 6.1
2019-Dec-14 08:48 062 6.1
2019-Dec-14 08:43 046 1 gusting 4 6.1
2019-Dec-14 08:38 081 0 gusting 4 6.1
2019-Dec-14 08:33 064 1 gusting 3 6.1
2019-Dec-14 08:28 090 1 gusting 5 5.6
2019-Dec-14 08:23 076 0 gusting 5 5.6
2019-Dec-14 08:18 058 1 gusting 5 5.6
2019-Dec-14 08:13 090 0 gusting 3 5.6
2019-Dec-14 08:08 113 0 gusting 4 5.6
2019-Dec-14 08:03 043 2 gusting 4 5.6
2019-Dec-14 07:58 065 1 gusting 3 5.6
2019-Dec-14 07:53 044 1 gusting 3 5.6
2019-Dec-14 07:48 033 0 gusting 6 5.6
2019-Dec-14 07:43 053 0 gusting 6 5.0
2019-Dec-14 07:38 168 0 gusting 4 5.0
2019-Dec-14 07:33 061 1 gusting 4 4.4
2019-Dec-14 07:28 063 0 gusting 5 4.4
2019-Dec-14 07:23 117 0 gusting 5 3.9
2019-Dec-14 07:18 092 0 gusting 5 3.9
2019-Dec-14 07:13 093 3.9
2019-Dec-14 07:08 050 0 gusting 3 3.9
2019-Dec-14 07:03 025 3.9
2019-Dec-14 06:58 013 0 gusting 2 3.9
2019-Dec-14 06:53 103 3.3
2019-Dec-14 06:48 086 0 gusting 1 3.3
2019-Dec-14 06:43 009 0 gusting 1 3.3
2019-Dec-14 06:38 088 3.3
2019-Dec-14 06:33 023 0 gusting 3 3.3
2019-Dec-14 06:28 033 3.3
2019-Dec-14 06:23 067 2.8
2019-Dec-14 06:18 078 1 gusting 2 2.2
2019-Dec-14 06:13 053 0 gusting 2 1.7
2019-Dec-14 06:08 296 1.7
2019-Dec-14 06:03 296 0 gusting 1 1.7
2019-Dec-14 05:58 296 0 gusting 1 1.1
2019-Dec-14 05:53 296 0 gusting 1 1.1
2019-Dec-14 05:48 296 1.1
2019-Dec-14 05:43 296 0 gusting 1 1.1
2019-Dec-14 05:38 296 0 gusting 2 1.1
2019-Dec-14 05:33 296 0 gusting 2 1.1
2019-Dec-14 05:28 296 0 gusting 2 1.1
2019-Dec-14 05:23 295 0 gusting 1 1.1
2019-Dec-14 05:18 295 0 gusting 1 1.1
2019-Dec-14 05:13 295 0 gusting 1 1.1
2019-Dec-14 05:08 295 0 gusting 1 1.1
2019-Dec-14 05:03 295 0 gusting 1 1.1
2019-Dec-14 04:58 295 0 gusting 1 1.1
2019-Dec-14 04:53 295 0 gusting 1 1.1
2019-Dec-14 04:48 295 0 gusting 1 1.1
2019-Dec-14 04:43 295 0 gusting 1 1.1
2019-Dec-14 04:38 295 1 gusting 2 1.1
2019-Dec-14 04:33 295 0 gusting 2 1.1
2019-Dec-14 04:28 295 0 gusting 2 1.1
2019-Dec-14 04:23 295 1.1
2019-Dec-14 04:18 294 1 gusting 2 1.1
2019-Dec-14 04:13 310 0 gusting 2 1.1
2019-Dec-14 04:08 309 1 gusting 2 1.1
2019-Dec-14 04:03 309 1 gusting 2 1.1
2019-Dec-14 03:58 309 1 gusting 2 1.1
2019-Dec-14 03:53 314 1 gusting 2 0.6
2019-Dec-14 03:48 314 0 gusting 1 0.6
2019-Dec-14 03:43 314 0 gusting 1 0.6
2019-Dec-14 03:38 314 0 gusting 1 0.6
2019-Dec-14 03:33 314 0 gusting 1 0.6
2019-Dec-14 03:28 314 0.6
2019-Dec-14 03:23 314 0 gusting 1 1.1
2019-Dec-14 03:18 314 1.1
2019-Dec-14 03:13 314 1.1
2019-Dec-14 03:08 314 1.1
2019-Dec-14 03:03 314 0.6
2019-Dec-14 02:58 313 0 gusting 1 0.6
2019-Dec-14 02:53 314 0 gusting 1 0.6
2019-Dec-14 02:48 314 0 gusting 1 0.6
2019-Dec-14 02:43 314 0.6
2019-Dec-14 02:38 314 0 gusting 2 0.6
2019-Dec-14 02:33 314 0 gusting 2 0.6
2019-Dec-14 02:28 344 0 gusting 1 0.6
2019-Dec-14 02:23 344 1.1
2019-Dec-14 02:18 344 1.1
2019-Dec-14 02:13 344 0 gusting 1 1.1
2019-Dec-14 02:08 344 0 gusting 1 1.1
2019-Dec-14 02:03 344 0 gusting 2 1.1
2019-Dec-14 01:58 344 0 gusting 2 1.1
2019-Dec-14 01:53 342 1.1
2019-Dec-14 01:48 342 0 gusting 1 1.1
2019-Dec-14 01:43 342 0 gusting 1 1.1
2019-Dec-14 01:38 342 0 gusting 1 1.1
2019-Dec-14 01:33 342 1.1
2019-Dec-14 01:28 342 1.1
2019-Dec-14 01:23 342 1.1
2019-Dec-14 01:18 342 1.1
2019-Dec-14 01:13 342 1.1
2019-Dec-14 01:08 342 1.1
2019-Dec-14 01:03 342 1.1
2019-Dec-14 00:58 342 1.1
2019-Dec-14 00:53 342 1.1
2019-Dec-14 00:48 342 1.1
2019-Dec-14 00:43 342 1.1
2019-Dec-14 00:38 342 0 gusting 0 1.1
2019-Dec-14 00:33 342 1.1
2019-Dec-14 00:28 342 0 gusting 1 1.1
2019-Dec-14 00:23 342 0 gusting 0 1.1
2019-Dec-14 00:18 342 0 gusting 1 1.1
2019-Dec-14 00:13 342 0 gusting 1 1.1
2019-Dec-14 00:08 342 0 gusting 1 1.1
2019-Dec-14 00:03 342 0 gusting 1 1.1
2019-Dec-13 23:58 342 0 gusting 1 1.1
2019-Dec-13 23:53 342 1.1
2019-Dec-13 23:48 342 0 gusting 0 1.1
2019-Dec-13 23:43 342 1.1
2019-Dec-13 23:38 342 1.1
2019-Dec-13 23:33 342 0 gusting 1 1.1
2019-Dec-13 23:28 342 0 gusting 0 1.1
2019-Dec-13 23:23 342 1.1
2019-Dec-13 23:18 342 1.1
2019-Dec-13 23:13 342 1.1
2019-Dec-13 23:08 342 1.1
2019-Dec-13 23:03 342 1.1
2019-Dec-13 22:58 342 0 gusting 0 1.1
2019-Dec-13 22:53 342 1.1
2019-Dec-13 22:48 342 1.1
2019-Dec-13 22:43 342 1.1
2019-Dec-13 22:38 342 0 gusting 1 1.1
2019-Dec-13 22:33 342 0 gusting 2 1.1
2019-Dec-13 22:28 342 0 gusting 1 1.1
2019-Dec-13 22:23 342 0 gusting 0 1.1
2019-Dec-13 22:18 342 1.1
2019-Dec-13 22:13 342 1.1
2019-Dec-13 22:08 342 1.1
2019-Dec-13 22:03 342 1.1
2019-Dec-13 21:58 342 1.1
2019-Dec-13 21:53 342 1.1
2019-Dec-13 21:48 342 1.1
2019-Dec-13 21:43 342 1.1
2019-Dec-13 21:38 342 1.1
2019-Dec-13 21:33 342 1.1
2019-Dec-13 21:28 342 1.1
2019-Dec-13 21:23 342 1.1
2019-Dec-13 21:18 342 1.1
2019-Dec-13 21:13 342 1.1
2019-Dec-13 21:08 342 1.1
2019-Dec-13 21:03 342 1.1
2019-Dec-13 20:58 342 1.1
2019-Dec-13 20:53 342 0 gusting 1 1.1
2019-Dec-13 20:48 342 0 gusting 1 1.1
2019-Dec-13 20:43 342 1.1
2019-Dec-13 20:38 342 1.1
2019-Dec-13 20:33 342 1.1
2019-Dec-13 20:28 342 1.1
2019-Dec-13 20:23 342 0 gusting 0 1.1
2019-Dec-13 20:18 342 1.1
2019-Dec-13 20:13 342 1.1
2019-Dec-13 20:08 343 0 gusting 0 1.1
2019-Dec-13 20:03 342 1.1